Wind_Speed
35 31 35 37 31 28 31 37 38 34 32 29 16 8 15 13 2 7 17 19 22 23 21 21 25 30 31 26 23 30 37 36 39 44 45 42 38 35 32 28 28 29 26 22 21 22 23 24 25 23 22 21 20 20 19 19 20 21 22 22 21 22 23
40 33 31 36 35 29 31 38 40 31 24 28 25 10 8 10 3 8 19 23 24 25 24 25 27 29 32 33 29 28 31 37 42 44 45 43 38 36 34 31 27 28 30 27 22 22 23 24 23 21 19 20 21 21 20 20 21 22 22 22 22 22 24
37 37 33 36 39 36 32 34 37 32 23 24 27 14 5 7 4 5 18 27 27 28 31 32 30 31 31 32 35 34 31 34 42 44 42 40 38 36 35 33 28 26 28 28 23 21 23 24 24 23 22 22 22 21 21 21 21 22 23 24 24 23 24
34 38 39 40 43 42 36 30 34 38 30 24 28 22 11 6 3 4 10 15 20 29 35 34 31 31 31 29 31 36 37 34 38 43 43 41 39 36 32 29 28 27 27 25 21 19 21 24 25 27 26 25 23 21 21 20 21 23 25 27 27 25 25
37 40 43 44 45 45 42 35 33 38 33 26 25 24 23 14 2 2 6 4 12 23 28 32 32 28 30 33 30 32 38 37 36 39 41 40 38 33 27 24 24 27 25 22 20 18 19 23 26 28 27 26 24 22 21 19 20 23 25 27 28 27 26
35 44 46 45 43 44 46 40 33 36 35 29 19 14 25 27 12 6 5 4 12 19 19 26 31 27 28 34 33 31 33 34 35 39 38 36 34 28 24 24 23 24 23 20 20 20 20 23 27 28 27 26 25 23 20 19 19 22 24 25 26 26 26
28 37 42 42 40 40 44 40 33 34 38 36 23 12 21 28 23 19 13 7 8 10 12 22 29 27 27 31 31 29 31 30 32 39 39 36 35 29 24 26 26 23 21 19 22 23 23 25 26 27 27 25 24 23 21 20 20 21 22 23 23 24 25
32 32 38 42 40 38 41 43 38 33 36 39 30 18 21 25 24 22 12 5 7 7 5 15 27 26 27 28 24 22 29 31 29 35 37 35 37 33 27 27 28 25 22 21 23 26 25 25 25 25 26 25 24 24 23 21 19 19 20 20 21 23 23
23 24 28 37 42 41 40 43 43 37 33 35 32 24 21 22 25 27 12 3 10 6 7 16 23 23 23 22 17 17 27 32 28 29 33 30 30 31 29 29 30 27 23 23 25 26 25 23 23 25 28 27 25 24 24 22 20 20 20 20 20 21 21
7 7 10 26 43 45 40 40 42 40 34 32 33 29 22 17 21 29 21 8 11 11 8 19 22 19 19 16 16 20 24 29 27 26 31 32 29 29 31 31 31 27 24 24 26 25 23 21 22 25 27 27 25 25 25 24 22 22 22 21 21 20 20
11 5 4 15 40 45 37 35 37 40 39 34 34 33 26 18 19 27 27 18 14 14 14 16 15 12 16 20 22 21 20 27 31 27 29 33 31 31 34 33 32 29 25 23 24 25 23 21 22 23 23 23 24 25 25 24 23 23 23 23 22 21 20
18 16 9 6 32 46 41 35 34 38 42 38 34 34 30 22 16 20 26 22 17 17 17 15 10 8 16 22 24 20 18 27 32 27 29 33 32 35 37 34 32 31 27 23 22 23 24 23 22 21 20 20 22 23 23 23 23 23 24 25 26 24 22
18 23 11 3 11 33 42 39 35 35 42 43 38 33 33 29 20 16 22 23 19 19 16 13 11 15 20 22 21 18 19 28 27 22 29 37 36 38 38 34 31 30 29 25 21 21 23 23 22 21 19 20 20 21 21 21 21 22 24 26 27 26 25
14 19 17 5 5 12 26 36 39 35 36 43 43 33 28 30 25 18 20 24 21 16 11 10 15 22 24 22 19 17 20 24 23 23 33 41 39 39 38 34 30 27 27 25 22 22 22 22 22 20 19 19 19 19 18 17 19 20 22 25 27 27 27
10 16 19 13 9 7 9 23 36 37 33 38 43 38 28 26 25 23 23 24 21 17 13 15 20 25 26 24 21 20 20 20 21 29 40 42 40 40 37 32 28 26 26 26 25 24 25 25 24 21 20 20 20 19 18 17 18 19 20 22 25 27 27
9 15 24 15 11 11 9 10 23 31 30 32 41 42 33 26 26 25 23 22 23 25 25 25 26 27 27 26 26 28 26 21 22 31 37 38 39 39 34 28 25 25 25 27 27 26 27 28 27 24 22 22 21 21 21 19 19 19 19 19 21 23 25
13 8 23 19 13 9 12 11 17 23 17 20 37 43 35 28 27 26 24 26 30 29 27 27 28 28 28 26 27 30 27 23 23 26 27 27 28 27 26 24 24 24 25 26 26 26 27 27 25 24 23 24 24 23 23 22 21 20 19 19 18 19 20
16 2 13 17 11 5 7 9 19 21 6 6 26 42 37 28 26 27 24 22 25 27 24 25 28 25 23 25 28 30 28 26 26 25 23 21 19 17 19 21 22 22 24 25 24 22 23 23 23 24 26 26 26 25 24 24 23 21 20 20 19 17 16
17 6 5 8 6 5 9 12 19 16 1 5 16 38 39 27 22 27 27 22 24 30 29 27 29 27 22 22 26 29 27 24 25 27 27 23 18 18 19 19 19 20 21 22 20 18 18 19 20 23 26 28 28 26 25 24 23 22 21 20 19 17 16
12 8 3 6 4 5 12 15 12 6 4 3 16 27 18 7 7 19 31 31 27 26 27 27 30 29 23 21 24 25 24 22 22 25 27 23 17 18 20 17 16 19 21 21 20 19 19 20 21 20 20 23 25 26 25 25 23 22 21 21 20 18 18
11 14 8 6 4 4 4 2 3 3 7 1 13 21 18 8 11 14 25 36 33 26 25 27 29 28 24 23 23 22 24 27 25 21 20 20 17 16 18 15 12 15 17 16 16 17 18 19 21 22 20 20 22 22 23 23 22 21 20 19 19 18 18
12 18 11 5 4 3 10 13 3 4 6 1 11 18 23 15 18 17 22 31 33 31 31 28 26 26 26 25 24 23 24 26 26 20 18 19 18 16 16 15 13 14 17 15 12 14 16 16 17 18 20 21 22 22 21 20 19 19 18 17 17 17 18
15 15 10 2 1 6 13 9 6 8 6 5 15 14 24 21 23 25 27 31 32 33 34 30 27 28 28 25 25 25 24 23 25 25 22 20 17 15 17 18 17 17 18 16 14 15 18 18 17 17 18 19 21 22 22 20 19 18 17 15 15 15 16
13 12 9 6 6 9 11 5 8 8 5 11 15 9 14 18 24 24 25 30 32 33 34 31 30 31 29 26 26 27 25 23 24 25 24 21 18 15 17 20 21 22 20 20 21 22 21 22 22 21 20 20 20 21 21 21 21 19 17 16 14 14 15
12 10 8 5 6 7 9 6 2 11 11 8 13 11 8 13 20 21 26 31 30 31 36 36 34 33 31 29 28 28 26 23 21 22 21 21 21 20 20 20 21 22 21 22 25 27 26 27 26 24 23 22 21 21 21 21 21 19 19 18 16 15 16
12 10 7 5 6 8 9 9 3 10 13 11 17 15 10 10 13 17 26 29 26 28 35 39 37 34 32 31 28 26 26 24 23 23 21 20 21 23 24 22 20 20 22 23 24 24 25 28 28 27 25 24 23 23 23 23 22 22 22 21 20 19 18
10 9 6 3 5 10 11 9 7 6 13 15 15 13 12 13 15 16 21 26 25 24 29 34 34 32 29 27 24 23 24 25 24 23 21 18 18 22 24 23 21 21 22 22 22 22 24 26 28 28 28 27 26 26 25 24 25 25 24 24 23 22 21
6 7 7 7 6 10 10 9 16 18 12 7 9 11 12 14 16 14 17 23 24 22 24 28 29 28 28 26 25 24 24 24 22 20 18 16 18 20 21 21 21 23 24 24 22 22 24 25 26 28 30 30 30 29 28 27 26 27 26 26 25 25 24
5 4 6 9 9 8 6 7 15 16 9 1 7 10 10 12 15 14 14 18 20 21 24 25 25 25 26 25 25 25 24 23 20 18 19 20 22 23 23 22 22 24 25 25 24 23 24 24 24 26 29 31 32 31 30 29 29 29 29 28 27 27 27
1 4 3 5 5 2 1 1 4 5 2 2 7 11 10 10 11 13 13 13 15 17 20 23 24 24 23 22 21 22 23 22 22 23 25 27 27 27 26 25 26 26 26 25 24 23 23 24 24 24 26 28 30 31 31 30 30 30 30 29 29 28 28
4 5 4 2 6 7 3 3 4 7 9 7 6 9 10 9 9 11 11 11 12 14 14 16 18 18 17 17 17 19 22 23 24 25 25 26 26 25 25 27 28 28 27 26 25 24 23 24 25 25 24 25 27 30 31 30 30 30 31 30 30 29 29
6 3 4 5 10 12 9 8 9 13 17 15 9 8 11 11 9 10 10 9 10 11 11 12 14 14 13 15 15 17 20 21 21 21 21 21 21 20 21 22 24 25 25 25 25 24 24 25 25 25 23 23 24 27 29 30 30 31 30 30 29 29 30
9 5 6 10 12 11 6 8 11 14 18 21 17 13 12 11 11 12 11 9 8 8 8 10 13 13 13 15 16 16 16 16 16 17 16 15 14 14 15 16 18 19 19 20 22 23 24 25 25 25 24 23 22 24 27 29 30 30 29 27 27 27 28
12 8 7 11 13 11 6 6 8 10 14 20 22 19 17 15 12 10 8 6 6 7 8 10 13 13 13 14 15 15 14 15 15 15 13 11 11 11 11 13 13 14 14 15 17 20 22 23 24 25 25 24 23 23 24 27 29 30 28 27 25 25 25
18 15 12 12 15 15 13 13 13 14 18 22 24 23 22 21 18 16 14 11 8 7 8 11 13 13 13 13 13 12 11 13 15 14 11 10 10 9 10 11 11 12 12 12 14 16 19 20 22 23 23 24 24 24 23 25 27 29 28 27 24 23 23
22 20 19 21 22 21 20 22 24 25 26 27 28 27 27 26 25 23 21 19 17 15 13 13 13 13 13 12 11 9 9 11 12 12 11 11 10 10 10 11 12 12 13 13 13 15 16 17 18 19 20 22 24 24 24 24 25 27 28 27 24 23 23
26 24 22 25 30 29 26 28 33 35 33 32 32 31 30 31 30 28 26 25 24 22 20 19 19 18 17 15 13 12 12 13 14 14 14 14 13 13 13 14 14 15 16 16 16 16 16 16 17 17 18 20 22 23 23 24 24 25 27 28 26 24 24
Wind_Direction
216 215 211 206 205 204 199 202 211 212 207 209 218 220 203 197 209 224 221 230 230 233 241 234 229 231 230 232 225 210 209 213 211 208 209 215 221 226 233 237 234 225 218 219 219 218 216 211 210 208 202 200 199 196 193 194 201 208 212 214 218 219 218
213 210 210 208 209 209 200 201 208 206 201 212 221 221 186 186 213 221 218 229 228 222 228 226 220 225 228 225 216 209 213 215 209 209 211 214 219 228 236 237 232 228 224 221 221 219 213 209 208 204 198 197 199 196 193 194 199 205 208 209 213 217 220
211 206 207 206 209 212 208 203 201 199 196 205 213 215 191 190 208 212 212 220 224 220 222 226 223 219 219 223 219 212 213 213 207 207 208 210 217 227 234 235 227 219 215 214 218 219 211 207 205 205 203 200 198 196 194 196 200 204 207 208 209 213 217
208 206 206 204 205 208 212 208 197 198 205 205 204 207 208 199 192 209 215 215 218 224 226 226 226 220 212 215 218 212 209 210 208 207 205 208 217 224 229 231 220 207 203 205 210 215 212 207 205 207 209 203 197 194 192 195 199 203 207 209 210 211 214
201 203 206 204 202 201 207 211 197 192 202 208 206 208 212 218 254 190 206 225 223 227 232 232 229 220 207 207 212 209 205 208 212 212 212 216 220 222 223 225 216 204 199 201 205 209 207 205 206 208 208 204 200 195 190 192 198 204 207 209 210 211 212
201 202 206 206 203 199 203 211 203 191 193 196 196 201 207 215 238 239 213 261 241 233 241 241 231 213 200 202 208 208 203 207 214 215 217 221 219 217 221 222 215 202 196 200 207 208 205 204 205 206 205 205 203 197 189 190 198 203 206 208 210 211 213
219 207 206 205 204 200 202 210 209 197 193 194 195 188 192 204 224 243 254 270 250 257 260 237 220 203 195 198 203 208 207 207 214 215 215 216 212 212 220 221 213 203 201 207 211 212 212 210 206 202 200 199 197 192 188 193 201 203 203 206 209 211 214
245 230 209 202 202 199 201 209 212 204 196 197 201 197 189 194 208 226 251 265 241 314 334 205 199 188 187 193 196 203 205 203 211 215 211 209 208 209 216 217 210 205 206 208 208 210 214 214 210 205 201 198 195 192 191 195 202 205 205 207 209 212 214
246 242 208 191 192 196 201 206 211 212 203 197 200 201 196 196 204 210 218 254 239 270 69 140 165 170 176 187 190 192 197 200 210 215 207 203 205 208 212 210 206 205 206 204 204 206 210 211 208 206 203 201 201 200 198 197 199 203 206 209 213 215 216
230 243 201 180 184 191 201 204 207 212 211 200 195 199 205 202 198 204 213 233 228 219 145 133 141 156 172 177 179 184 193 200 207 211 205 202 205 210 212 208 205 207 206 204 202 203 207 206 199 197 198 198 201 205 205 200 197 200 204 209 215 218 220
253 274 316 195 187 187 195 204 205 208 213 210 196 195 208 208 188 196 210 214 195 187 183 166 148 154 173 171 172 184 197 198 198 201 202 202 206 209 209 207 206 206 205 206 205 205 209 208 199 195 196 198 202 206 207 203 198 199 204 209 214 218 221
259 260 301 220 193 188 188 199 205 205 209 214 205 196 202 209 192 191 204 201 178 171 187 195 185 174 180 177 177 187 196 192 193 202 207 205 203 201 201 202 204 204 205 210 212 212 214 214 208 205 203 205 209 209 209 208 203 202 204 209 214 217 219
257 244 248 343 201 190 186 194 205 206 204 210 213 202 198 205 206 194 197 195 175 165 180 196 184 168 173 180 183 185 186 188 195 204 202 199 196 192 194 198 201 202 205 210 216 218 217 212 208 208 205 204 209 208 207 208 207 206 207 210 216 218 219
264 238 223 248 284 196 183 191 202 208 204 205 212 211 198 200 208 204 199 196 185 178 191 196 179 170 169 172 178 182 182 186 192 188 184 189 190 187 191 196 197 198 200 206 216 222 218 210 205 205 203 199 201 201 199 202 206 208 209 211 216 220 221
274 233 214 223 265 251 185 187 199 210 210 202 207 214 206 195 200 204 202 200 197 193 179 156 156 163 162 153 149 153 158 163 171 173 174 179 182 183 188 192 188 190 199 208 217 219 216 214 213 213 210 203 201 200 198 198 203 208 212 214 216 220 223
307 221 206 224 278 269 244 210 196 204 212 204 202 211 212 198 193 197 191 176 166 164 155 142 137 140 141 138 132 131 132 137 155 168 171 173 178 182 186 187 188 197 207 213 216 217 217 217 217 219 216 209 206 204 203 203 205 211 218 222 223 223 225
333 211 203 235 292 285 257 244 195 191 208 208 200 205 212 204 193 194 185 159 147 151 153 151 145 136 128 131 135 137 135 134 146 160 167 169 173 180 187 194 200 206 211 213 218 224 225 220 216 216 216 213 211 208 207 209 211 214 219 227 232 230 228
329 316 207 245 285 274 240 213 184 183 211 242 198 198 206 207 198 195 186 165 160 166 167 162 159 150 135 130 137 143 141 134 135 145 152 152 154 163 176 189 197 202 206 210 215 221 222 221 220 218 216 215 213 212 211 212 214 216 220 226 233 234 230
321 328 206 242 285 261 221 192 174 168 35 340 181 184 196 211 211 200 189 175 168 170 172 171 164 155 145 137 141 149 148 137 131 135 139 142 146 157 165 171 178 184 192 195 195 196 199 205 212 214 215 214 212 212 213 213 215 217 220 224 228 228 223
337 342 221 212 276 250 211 199 182 144 3 310 153 150 158 179 194 192 186 179 169 162 163 165 160 156 148 133 136 150 160 159 149 144 149 155 160 164 165 166 171 177 185 191 193 194 193 193 194 195 202 210 210 211 211 212 216 218 221 226 227 224 219
356 343 299 239 248 234 206 271 297 36 15 262 144 103 74 104 163 172 176 176 175 169 162 156 157 162 155 136 133 148 165 175 175 167 166 175 183 179 172 173 177 180 185 193 199 200 198 198 197 192 190 196 201 206 209 212 215 217 220 226 228 226 222
335 339 319 244 220 301 8 7 314 155 67 188 165 96 72 111 147 134 143 158 162 165 167 162 158 159 150 139 144 155 164 176 183 183 180 183 191 194 188 187 187 178 176 182 194 199 197 202 210 208 204 201 199 200 205 209 214 219 222 226 231 231 228
310 328 325 305 295 345 2 2 210 169 90 174 177 104 64 79 105 112 125 134 137 150 161 163 162 161 153 150 157 164 168 175 180 186 192 190 190 196 198 200 204 199 195 203 213 209 202 207 220 226 223 219 213 208 206 207 211 218 225 232 237 239 236
301 308 307 338 17 7 357 332 215 195 172 176 163 103 48 73 97 111 126 127 129 143 155 159 163 162 160 162 168 172 176 180 181 186 193 195 194 198 202 206 212 215 217 224 228 225 217 216 223 228 228 228 226 221 216 213 214 218 224 231 236 240 239
305 312 304 332 4 359 359 7 188 195 193 153 115 98 71 85 99 115 130 129 129 142 153 157 157 156 161 168 173 175 175 178 185 189 192 197 200 205 208 209 211 213 214 221 227 228 224 221 223 225 225 226 229 230 228 225 223 222 222 224 229 234 236
294 314 313 324 341 334 339 356 347 190 173 111 88 101 116 115 121 135 138 134 129 138 152 157 155 156 165 171 171 173 175 179 189 192 192 197 205 212 214 213 213 214 215 221 228 228 225 223 222 222 222 223 227 231 233 233 231 229 226 225 227 232 235
297 328 345 358 351 334 328 344 18 106 129 108 97 113 132 143 151 151 146 142 135 136 150 160 163 165 170 170 167 168 175 185 195 197 197 203 214 222 222 219 219 221 222 224 229 229 225 223 222 220 220 220 223 227 232 235 236 235 234 231 231 233 236
352 15 44 62 43 3 355 35 57 57 65 98 128 136 141 154 161 161 156 152 148 146 152 161 168 172 173 174 175 177 183 193 199 202 209 221 232 236 235 230 228 231 232 231 231 231 228 225 224 224 221 219 221 224 229 234 238 240 240 238 237 236 238
33 76 84 63 57 42 21 65 82 73 55 85 165 155 151 158 162 162 163 162 161 162 165 169 176 180 180 181 183 186 194 204 214 225 240 251 255 252 246 240 238 238 239 238 235 234 231 228 228 229 226 224 224 224 226 231 236 240 242 243 242 241 241
288 185 143 27 23 61 53 60 108 101 75 166 171 171 168 162 157 155 160 168 172 173 176 181 186 190 191 195 198 202 210 221 234 247 255 260 259 253 245 243 244 245 246 244 238 235 233 231 230 230 230 230 228 227 228 230 233 237 240 242 243 243 242
264 215 178 246 268 255 261 323 315 291 276 250 197 184 184 175 157 148 147 154 172 182 185 189 193 197 201 206 214 222 230 239 246 250 252 255 255 252 248 248 249 253 255 252 244 238 234 232 232 232 232 233 231 230 229 229 231 235 238 240 242 242 242
293 246 184 214 248 252 266 299 301 285 275 265 242 210 201 193 178 168 159 151 162 177 183 186 192 198 202 206 214 224 231 238 243 245 247 251 254 255 255 254 256 259 261 258 251 244 238 234 234 234 235 236 235 233 231 230 230 234 237 240 242 242 241
289 262 240 248 242 223 235 293 278 262 266 267 255 240 229 217 197 183 174 164 167 176 178 183 189 192 194 199 205 213 218 223 227 233 239 245 249 252 253 253 256 259 260 258 255 249 242 239 238 237 238 238 238 237 234 232 231 234 237 240 242 244 244
275 260 255 267 257 229 224 285 269 244 259 267 261 255 253 248 236 219 206 197 193 193 189 187 190 192 191 193 199 205 207 208 212 219 228 234 240 243 245 248 252 255 257 258 255 250 246 243 241 240 241 242 242 242 240 236 235 236 238 240 243 246 248
265 251 240 247 255 248 240 242 241 240 247 254 255 255 256 257 257 255 254 253 252 246 227 207 201 201 200 200 205 210 212 212 213 218 230 242 247 248 250 255 260 264 266 263 257 253 250 246 244 243 243 245 246 245 244 242 239 237 238 239 241 244 248
258 248 238 235 240 244 239 232 233 239 242 243 246 250 252 254 254 254 253 253 254 258 253 238 228 225 221 219 223 231 237 237 236 241 252 259 262 264 268 272 276 277 278 276 271 263 256 251 248 246 245 245 246 246 245 245 244 242 240 238 238 241 245
254 247 240 237 239 242 240 234 234 238 241 244 246 248 250 252 253 252 251 249 250 253 254 251 249 245 242 243 249 257 265 269 269 270 271 270 272 275 278 282 286 287 286 286 282 276 268 260 251 245 244 245 243 242 244 245 245 245 242 238 237 238 241
Height
3062 3064 3067 3071 3073 3073 3076 3079 3078 3078 3084 3089 3089 3090 3090 3092 3093 3092 3091 3090 3092 3095 3093 3094 3097 3098 3099 3101 3103 3106 3105 3104 3106 3108 3111 3116 3119 3122 3126 3129 3132 3136 3138 3140 3141 3143 3145 3147 3148 3150 3152 3154 3157 3159 3160 3163 3166 3168 3171 3173 3176 3179 3181
3057 3062 3066 3068 3070 3071 3071 3071 3073 3080 3087 3088 3088 3088 3088 3090 3092 3089 3088 3089 3090 3091 3089 3090 3093 3094 3095 3098 3100 3103 3104 3102 3102 3104 3108 3112 3116 3119 3122 3126 3130 3133 3136 3138 3139 3141 3142 3144 3146 3148 3151 3153 3155 3157 3158 3161 3163 3166 3168 3170 3173 3176 3179
3054 3059 3063 3064 3066 3067 3067 3068 3073 3079 3081 3081 3083 3084 3084 3087 3089 3086 3084 3085 3085 3084 3083 3085 3088 3088 3090 3093 3096 3099 3101 3100 3100 3102 3106 3108 3112 3116 3119 3123 3127 3130 3133 3135 3137 3139 3141 3143 3145 3147 3149 3151 3153 3154 3156 3159 3162 3164 3167 3168 3170 3173 3176
3051 3055 3056 3055 3057 3062 3065 3068 3070 3073 3075 3076 3077 3078 3079 3081 3083 3083 3082 3080 3078 3077 3077 3078 3081 3083 3086 3089 3091 3094 3097 3098 3099 3100 3103 3106 3110 3114 3117 3120 3124 3127 3129 3132 3135 3137 3138 3141 3144 3145 3147 3149 3151 3152 3154 3157 3159 3162 3163 3165 3167 3169 3172
3045 3045 3045 3046 3049 3055 3059 3062 3064 3067 3071 3074 3075 3076 3077 3077 3078 3078 3079 3077 3073 3073 3073 3073 3075 3078 3081 3085 3088 3091 3094 3096 3097 3099 3101 3104 3109 3113 3116 3118 3121 3124 3127 3130 3133 3135 3137 3139 3141 3143 3145 3147 3148 3150 3151 3154 3157 3159 3160 3162 3164 3166 3169
3037 3036 3039 3043 3047 3051 3054 3057 3059 3062 3066 3069 3071 3073 3073 3075 3076 3074 3075 3075 3070 3070 3071 3069 3070 3074 3076 3080 3084 3088 3091 3093 3095 3097 3100 3103 3107 3110 3113 3116 3119 3122 3125 3128 3130 3132 3134 3136 3138 3141 3143 3144 3146 3148 3150 3152 3155 3156 3158 3159 3161 3164 3167
3033 3035 3039 3042 3046 3051 3054 3056 3057 3059 3062 3063 3065 3067 3069 3072 3074 3073 3073 3073 3069 3067 3066 3063 3066 3070 3073 3078 3082 3085 3089 3091 3092 3094 3097 3101 3104 3107 3111 3114 3117 3120 3122 3125 3128 3130 3132 3134 3136 3139 3141 3142 3144 3147 3149 3150 3153 3154 3155 3157 3159 3162 3164
3030 3033 3037 3040 3044 3049 3052 3052 3054 3055 3057 3059 3062 3065 3067 3069 3071 3071 3072 3071 3068 3066 3062 3059 3063 3069 3072 3077 3080 3083 3085 3088 3090 3091 3094 3098 3101 3105 3109 3112 3115 3118 3121 3124 3126 3128 3130 3132 3134 3136 3138 3140 3143 3145 3147 3149 3151 3154 3154 3155 3157 3159 3162
3027 3029 3030 3033 3036 3042 3045 3047 3050 3052 3054 3058 3061 3064 3066 3066 3068 3069 3070 3069 3068 3067 3065 3063 3066 3070 3073 3076 3079 3081 3083 3085 3087 3089 3092 3096 3099 3102 3106 3109 3113 3117 3120 3122 3125 3127 3128 3131 3133 3134 3136 3138 3141 3144 3146 3148 3150 3152 3153 3154 3155 3157 3160
3025 3025 3024 3024 3028 3034 3039 3043 3047 3049 3052 3055 3058 3061 3063 3063 3064 3067 3068 3067 3067 3068 3068 3068 3069 3071 3073 3075 3076 3078 3081 3083 3085 3087 3090 3095 3098 3100 3102 3106 3110 3114 3118 3121 3124 3126 3128 3130 3132 3133 3135 3137 3140 3143 3145 3146 3148 3150 3151 3152 3153 3156 3158
3023 3022 3022 3024 3027 3031 3036 3040 3044 3047 3050 3052 3055 3057 3059 3060 3062 3064 3065 3067 3067 3067 3068 3068 3070 3072 3073 3073 3074 3076 3079 3081 3084 3086 3089 3093 3096 3098 3099 3103 3107 3111 3115 3119 3122 3124 3127 3128 3131 3132 3134 3136 3138 3141 3143 3144 3145 3147 3148 3150 3152 3154 3156
3022 3020 3020 3024 3026 3027 3031 3037 3042 3045 3047 3049 3051 3053 3055 3059 3061 3061 3063 3066 3066 3066 3068 3068 3069 3071 3072 3072 3072 3075 3077 3080 3083 3086 3088 3091 3094 3096 3098 3101 3105 3109 3113 3116 3119 3122 3125 3126 3128 3130 3133 3135 3137 3139 3141 3142 3143 3144 3146 3147 3149 3152 3154
3019 3019 3019 3022 3023 3024 3028 3033 3038 3041 3044 3046 3048 3050 3054 3057 3059 3060 3062 3064 3065 3066 3068 3069 3069 3070 3070 3070 3072 3074 3077 3079 3082 3083 3085 3088 3092 3094 3097 3101 3104 3108 3111 3114 3117 3120 3122 3124 3126 3129 3131 3133 3135 3137 3139 3140 3140 3142 3144 3145 3147 3150 3152
3015 3017 3018 3020 3023 3025 3027 3030 3034 3037 3040 3043 3046 3049 3053 3055 3057 3060 3061 3062 3064 3066 3068 3069 3069 3069 3068 3069 3071 3075 3077 3079 3081 3083 3084 3087 3091 3094 3098 3101 3105 3108 3111 3114 3117 3119 3121 3123 3125 3127 3129 3131 3133 3135 3137 3138 3139 3140 3142 3144 3145 3147 3149
3014 3015 3017 3019 3022 3025 3027 3029 3033 3035 3038 3042 3045 3048 3051 3053 3056 3059 3060 3061 3062 3065 3068 3068 3067 3067 3068 3070 3072 3074 3078 3080 3082 3084 3086 3088 3091 3095 3099 3102 3105 3108 3111 3113 3116 3118 3120 3121 3123 3125 3127 3129 3131 3133 3134 3136 3137 3138 3140 3141 3143 3145 3147
3014 3015 3017 3019 3022 3024 3025 3026 3029 3032 3035 3039 3042 3045 3048 3051 3054 3056 3058 3059 3060 3063 3066 3067 3066 3067 3068 3071 3073 3075 3077 3080 3083 3086 3088 3091 3094 3097 3100 3102 3105 3108 3110 3112 3114 3116 3118 3121 3122 3124 3126 3128 3129 3131 3132 3133 3135 3136 3138 3139 3141 3143 3145
3014 3015 3019 3021 3023 3024 3023 3023 3026 3030 3033 3037 3039 3043 3047 3050 3053 3055 3057 3058 3059 3061 3063 3064 3065 3066 3068 3071 3074 3076 3077 3080 3083 3087 3091 3094 3097 3099 3101 3103 3105 3107 3110 3111 3113 3115 3116 3118 3120 3122 3124 3126 3127 3129 3130 3132 3133 3135 3136 3137 3139 3141 3143
3016 3015 3020 3023 3023 3024 3022 3022 3026 3029 3032 3035 3036 3039 3045 3050 3052 3054 3056 3058 3059 3060 3061 3063 3064 3065 3068 3072 3075 3077 3079 3081 3084 3088 3091 3094 3096 3099 3101 3103 3105 3107 3109 3111 3112 3113 3114 3116 3118 3120 3122 3124 3126 3128 3129 3130 3131 3133 3134 3136 3137 3138 3140
3018 3016 3020 3024 3023 3021 3020 3022 3026 3029 3032 3033 3032 3037 3047 3052 3053 3054 3055 3056 3057 3058 3059 3061 3063 3065 3068 3071 3074 3077 3079 3082 3085 3088 3090 3092 3094 3096 3098 3101 3104 3106 3108 3109 3110 3112 3113 3115 3117 3119 3121 3123 3124 3126 3127 3128 3130 3131 3132 3134 3135 3136 3138
3019 3018 3021 3023 3021 3018 3019 3022 3024 3027 3031 3033 3030 3031 3038 3040 3038 3041 3048 3051 3054 3058 3058 3059 3061 3064 3066 3069 3073 3076 3078 3081 3084 3086 3087 3089 3091 3094 3097 3099 3102 3104 3106 3107 3109 3111 3113 3114 3116 3117 3119 3121 3123 3124 3125 3126 3128 3129 3130 3132 3133 3134 3136
3021 3020 3020 3020 3017 3016 3017 3019 3020 3023 3027 3031 3029 3026 3029 3032 3032 3039 3046 3048 3051 3055 3057 3058 3061 3062 3063 3067 3072 3077 3079 3080 3081 3082 3085 3087 3090 3093 3096 3098 3101 3103 3105 3107 3109 3111 3112 3114 3115 3116 3118 3119 3121 3122 3124 3125 3126 3127 3128 3129 3131 3132 3134
3022 3021 3021 3019 3018 3016 3015 3017 3021 3023 3025 3028 3027 3024 3028 3034 3038 3042 3047 3048 3049 3052 3055 3058 3060 3060 3062 3067 3072 3075 3077 3078 3079 3081 3084 3086 3089 3092 3095 3098 3100 3102 3104 3106 3108 3110 3111 3113 3114 3116 3117 3118 3119 3120 3122 3123 3124 3125 3126 3128 3129 3130 3131
3023 3023 3023 3021 3019 3017 3016 3017 3020 3022 3023 3025 3024 3025 3032 3036 3037 3040 3044 3046 3046 3048 3052 3057 3059 3059 3062 3066 3069 3072 3074 3077 3079 3080 3082 3085 3088 3091 3094 3097 3098 3100 3102 3105 3106 3107 3109 3111 3112 3114 3115 3116 3117 3118 3120 3121 3122 3123 3125 3126 3127 3128 3129
3024 3024 3024 3023 3021 3020 3019 3017 3017 3020 3023 3022 3022 3030 3039 3039 3036 3039 3042 3042 3042 3045 3050 3055 3058 3058 3060 3062 3065 3069 3072 3074 3077 3080 3082 3085 3088 3091 3093 3095 3096 3098 3101 3102 3102 3104 3107 3109 3111 3112 3112 3113 3115 3116 3118 3119 3120 3122 3123 3124 3125 3126 3127
3025 3025 3025 3024 3022 3021 3020 3018 3018 3019 3021 3021 3025 3035 3042 3040 3037 3038 3040 3040 3040 3043 3046 3048 3050 3053 3055 3057 3061 3066 3070 3074 3077 3080 3083 3086 3088 3090 3091 3093 3095 3097 3099 3099 3099 3101 3105 3108 3109 3110 3111 3112 3113 3114 3115 3117 3118 3120 3121 3122 3123 3124 3125
3026 3026 3025 3025 3023 3021 3020 3019 3018 3017 3020 3025 3032 3037 3039 3039 3038 3038 3039 3039 3040 3042 3043 3044 3046 3049 3053 3057 3061 3066 3070 3074 3077 3079 3082 3085 3087 3087 3088 3091 3093 3095 3096 3097 3097 3100 3103 3105 3106 3107 3108 3109 3111 3112 3113 3114 3115 3117 3118 3119 3120 3121 3122
3025 3025 3025 3027 3027 3024 3021 3020 3019 3019 3023 3030 3035 3036 3036 3036 3038 3038 3039 3040 3040 3042 3045 3046 3047 3049 3053 3058 3063 3067 3071 3074 3076 3078 3081 3083 3084 3085 3087 3090 3092 3093 3094 3095 3096 3098 3100 3101 3102 3103 3105 3106 3108 3108 3110 3111 3113 3114 3115 3117 3118 3119 3120
3026 3027 3028 3029 3029 3026 3024 3024 3024 3026 3029 3032 3034 3035 3035 3035 3037 3038 3040 3041 3042 3043 3045 3047 3048 3051 3055 3059 3063 3067 3071 3073 3075 3078 3080 3081 3082 3083 3086 3089 3091 3091 3091 3092 3094 3096 3097 3098 3099 3100 3101 3103 3104 3105 3107 3109 3110 3111 3113 3114 3116 3117 3118
3027 3028 3029 3029 3028 3027 3027 3028 3028 3029 3031 3032 3034 3035 3036 3035 3037 3039 3040 3042 3044 3045 3047 3048 3050 3052 3056 3059 3063 3066 3069 3071 3073 3076 3077 3078 3080 3082 3084 3087 3088 3087 3088 3089 3091 3093 3094 3095 3096 3097 3098 3099 3101 3102 3104 3106 3107 3108 3109 3111 3113 3114 3115
3028 3029 3028 3028 3027 3028 3029 3031 3031 3030 3030 3031 3033 3035 3037 3037 3038 3039 3041 3043 3044 3046 3049 3050 3051 3053 3056 3058 3062 3065 3068 3070 3072 3074 3075 3076 3078 3079 3081 3083 3084 3084 3085 3086 3088 3090 3091 3092 3093 3093 3095 3096 3098 3100 3101 3102 3104 3105 3106 3107 3109 3111 3112
3029 3029 3028 3027 3028 3029 3030 3033 3033 3031 3030 3031 3033 3034 3036 3037 3038 3038 3040 3042 3045 3047 3048 3049 3050 3052 3055 3058 3061 3064 3066 3068 3070 3072 3073 3074 3075 3077 3079 3080 3080 3081 3082 3083 3085 3086 3088 3089 3089 3090 3092 3093 3095 3096 3098 3100 3101 3102 3102 3104 3105 3107 3108
3028 3029 3029 3028 3028 3030 3033 3035 3034 3031 3029 3030 3032 3033 3034 3036 3037 3037 3038 3040 3043 3045 3046 3046 3048 3050 3053 3056 3059 3061 3064 3067 3069 3070 3072 3073 3074 3075 3077 3078 3078 3078 3079 3080 3082 3083 3084 3085 3086 3087 3089 3090 3092 3093 3094 3096 3098 3098 3099 3100 3101 3103 3104
3027 3029 3029 3027 3027 3030 3033 3033 3031 3030 3029 3029 3030 3031 3032 3034 3036 3036 3036 3038 3041 3043 3044 3045 3047 3049 3052 3055 3058 3060 3063 3065 3067 3069 3070 3071 3072 3073 3074 3075 3076 3076 3077 3078 3079 3080 3081 3082 3083 3085 3086 3087 3089 3090 3091 3093 3094 3095 3096 3097 3098 3099 3100
3024 3026 3027 3026 3026 3027 3028 3027 3027 3029 3030 3029 3029 3031 3032 3034 3035 3036 3037 3039 3040 3042 3043 3045 3047 3049 3052 3055 3057 3059 3062 3063 3065 3067 3068 3069 3070 3071 3071 3072 3073 3074 3075 3075 3076 3077 3077 3078 3080 3081 3083 3084 3086 3087 3088 3089 3091 3092 3093 3094 3094 3095 3096
3022 3024 3026 3026 3026 3026 3026 3027 3027 3029 3030 3030 3031 3032 3033 3034 3036 3038 3040 3041 3042 3043 3044 3046 3048 3050 3052 3054 3056 3058 3060 3061 3063 3064 3066 3066 3067 3068 3068 3069 3070 3071 3072 3073 3073 3074 3074 3075 3076 3078 3080 3081 3082 3083 3084 3086 3087 3088 3089 3090 3091 3092 3093
3021 3022 3024 3023 3022 3023 3026 3028 3028 3028 3028 3029 3030 3031 3033 3034 3035 3038 3040 3041 3041 3042 3044 3045 3047 3049 3051 3052 3054 3056 3057 3059 3060 3062 3063 3063 3064 3065 3065 3066 3067 3068 3069 3069 3070 3071 3072 3072 3074 3075 3077 3077 3078 3080 3081 3082 3083 3084 3086 3087 3088 3089 3090
3017 3018 3020 3020 3019 3019 3023 3027 3027 3027 3028 3029 3030 3030 3031 3032 3033 3036 3038 3040 3040 3041 3043 3045 3046 3048 3049 3051 3053 3054 3056 3057 3058 3059 3060 3061 3061 3062 3063 3064 3064 3065 3065 3066 3067 3068 3068 3070 3071 3072 3073 3074 3075 3076 3077 3078 3080 3081 3082 3083 3084 3085 3086